Date String (YYYY-MM-DD hh:mm:ss) UTC,Instrument flags,absolute air pressure of the measurement (hPa),sample flow rate (lpm),inlet stack bypass flow (lpm),air temperature of the measurement (°C),ambient temperature measured by the external sensor (°C),aerosol sample conditioner tube jacket temperature (°C),OPC LED temperature (°C),internal box temperature (°C),relative humidity of the measurement (%),span deviation,mass concentration of particles derived from Lorenz-Mie calculation of OPC scattering (μg/m³),mass concentration of particles derived from Lorenz-Mie calculation of OPC scattering (μg/m³),mass concentration of particles derived from Lorenz-Mie calculation of OPC scattering (μg/m³)
DateTimeUTC,F1_M11,P_M11,Q1_M11,Q2_M11,T1_M11,T2_M11,T3_M11,T4_M11,T5_M11,U1_M11,ZSPAN_M11,X2_M11,X0_M11,X1_M11
2024-02-10 06:00:00,SystemResetWarning,0825.0,5.00,000.00,019.2,018.6,000.0,027.7,020.9,22.4,0000.0,0003.34,0004.46,0003.19
2024-02-10 06:01:00,SystemResetWarning,0825.0,5.00,000.00,019.2,018.6,000.0,027.7,020.9,22.4,0000.0,0003.29,0004.34,0003.14
2024-02-10 06:02:00,SystemResetWarning,0825.0,5.00,000.00,019.2,018.6,000.0,027.7,020.9,22.4,0000.0,0003.23,0004.26,0003.07
2024-02-10 06:03:00,SystemResetWarning,0825.0,4.99,000.00,019.1,018.6,000.0,027.7,020.9,22.4,0000.0,0003.18,0005.16,0002.98
2024-02-10 06:04:00,SystemResetWarning,0825.0,5.00,000.00,019.1,018.6,000.0,027.7,020.9,22.4,0000.0,0003.12,0005.61,0002.88
2024-02-10 06:05:00,SystemResetWarning,0825.1,4.99,000.00,019.1,018.6,000.0,027.7,020.9,22.4,0000.0,0003.02,0005.43,0002.76
2024-02-10 06:06:00,SystemResetWarning,0825.1,5.00,000.00,019.1,018.6,000.0,027.7,020.9,22.4,0000.0,0002.87,0005.20,0002.65
2024-02-10 06:07:00,SystemResetWarning,0825.1,4.99,000.00,019.1,018.6,000.0,027.7,020.9,22.4,0000.0,0002.79,0005.12,0002.56
2024-02-10 06:08:00,SystemResetWarning,0825.1,5.01,000.00,019.1,018.6,000.0,027.7,020.9,22.4,0000.0,0002.72,0005.04,0002.49
2024-02-10 06:09:00,SystemResetWarning,0825.0,5.01,000.00,019.1,018.6,000.0,027.6,020.9,22.4,0000.0,0002.63,0004.88,0002.43
2024-02-10 06:10:00,SystemResetWarning,0825.1,5.00,000.00,019.1,018.6,000.0,027.6,020.9,22.3,0000.0,0002.57,0004.79,0002.39
2024-02-10 06:11:00,SystemResetWarning,0825.0,4.99,000.00,019.1,018.6,000.0,027.6,020.9,22.3,0000.0,0002.55,0004.74,0002.38
2024-02-10 06:12:00,SystemResetWarning,0825.1,5.00,000.00,019.1,018.6,000.0,027.6,020.9,22.3,0000.0,0002.51,0004.68,0002.36
2024-02-10 06:13:00,SystemResetWarning,0825.1,5.00,000.00,019.1,018.6,000.0,027.6,020.8,22.3,0000.0,0002.46,0004.58,0002.33
2024-02-10 06:14:00,SystemResetWarning,0825.1,5.02,000.00,019.1,018.5,000.0,027.6,020.8,22.3,0000.0,0002.42,0003.92,0002.29
2024-02-10 06:15:00,SystemResetWarning,0825.1,5.00,000.00,019.1,018.5,000.0,027.6,020.8,22.2,0000.0,0002.41,0003.68,0002.27
2024-02-10 06:16:00,SystemResetWarning,0825.1,5.00,000.00,019.1,018.5,000.0,027.6,020.8,22.2,0000.0,0002.36,0003.60,0002.23
2024-02-10 06:17:00,SystemResetWarning,0825.1,5.00,000.00,019.1,018.5,000.0,027.6,020.8,22.2,0000.0,0002.34,0003.59,0002.20
2024-02-10 06:18:00,SystemResetWarning,0825.0,5.00,000.00,019.0,018.5,000.0,027.6,020.8,22.2,0000.0,0002.30,0003.55,0002.18
2024-02-10 06:19:00,SystemResetWarning,0825.0,5.00,000.00,019.0,018.5,000.0,027.6,020.7,22.2,0000.0,0002.30,0003.55,0002.15
2024-02-10 06:20:00,SystemResetWarning,0825.0,5.00,000.00,019.0,018.5,000.0,027.6,020.7,22.1,0000.0,0002.26,0003.51,0002.10
2024-02-10 06:21:00,SystemResetWarning,0825.0,5.00,000.00,019.0,018.5,000.0,027.6,020.7,22.1,0000.0,0002.21,0003.45,0002.06
2024-02-10 06:22:00,SystemResetWarning,0824.9,5.00,000.00,019.0,018.5,000.0,027.6,020.7,22.1,0000.0,0002.16,0003.38,0002.02
2024-02-10 06:23:00,SystemResetWarning,0825.0,5.00,000.00,019.0,018.4,000.0,027.5,020.7,22.0,0000.0,0002.15,0003.37,0002.00
2024-02-10 06:24:00,SystemResetWarning,0825.0,5.00,000.00,019.0,018.4,000.0,027.5,020.7,22.0,0000.0,0002.12,0003.34,0001.98
2024-02-10 06:25:00,SystemResetWarning,0825.0,5.00,000.00,019.0,018.4,000.0,027.5,020.7,22.0,0000.0,0002.10,0003.28,0001.96
2024-02-10 06:26:00,SystemResetWarning,0825.0,5.01,000.00,019.0,018.4,000.0,027.5,020.6,22.0,0000.0,0002.06,0002.46,0001.94
2024-02-10 06:27:00,SystemResetWarning,0825.0,5.01,000.00,018.9,018.4,000.0,027.5,020.6,22.0,0000.0,0002.08,0002.51,0001.94
2024-02-10 06:28:00,SystemResetWarning,0825.1,5.00,000.00,018.9,018.4,000.0,027.5,020.6,22.0,0000.0,0002.08,0002.51,0001.93
2024-02-10 06:29:00,SystemResetWarning,0825.1,5.00,000.00,018.9,018.3,000.0,027.5,020.6,22.0,0000.0,0002.05,0002.47,0001.91
2024-02-10 06:30:00,SystemResetWarning,0825.1,4.98,000.00,018.9,018.3,000.0,027.5,020.6,22.0,0000.0,0002.02,0002.41,0001.90
2024-02-10 06:31:00,SystemResetWarning,0825.1,5.00,000.00,018.9,018.3,000.0,027.5,020.6,22.0,0000.0,0002.01,0002.40,0001.90
2024-02-10 06:32:00,SystemResetWarning,0825.1,5.01,000.00,018.9,018.3,000.0,027.4,020.6,22.0,0000.0,0002.04,0002.48,0001.89
2024-02-10 06:33:00,SystemResetWarning,0825.1,5.00,000.00,018.9,018.3,000.0,027.4,020.5,22.0,0000.0,0002.05,0002.52,0001.89
2024-02-10 06:34:00,SystemResetWarning,0825.2,5.00,000.00,018.8,018.3,000.0,027.4,020.6,22.1,0000.0,0002.05,0002.56,0001.88
2024-02-10 06:35:00,SystemResetWarning,0825.2,4.99,000.00,018.8,018.3,000.0,027.4,020.6,22.1,0000.0,0002.04,0002.54,0001.87
2024-02-10 06:36:00,SystemResetWarning,0825.2,5.00,000.00,018.8,018.3,000.0,027.4,020.5,22.1,0000.0,0002.05,0002.55,0001.87
2024-02-10 06:37:00,SystemResetWarning,0825.2,5.00,000.00,018.8,018.3,000.0,027.4,020.5,22.1,0000.0,0002.06,0002.57,0001.88
2024-02-10 06:38:00,SystemResetWarning,0825.2,5.00,000.00,018.8,018.3,000.0,027.4,020.5,22.1,0000.0,0002.07,0002.62,0001.89
2024-02-10 06:39:00,SystemResetWarning,0825.2,5.00,000.00,018.8,018.2,000.0,027.4,020.5,22.1,0000.0,0002.08,0002.62,0001.91
2024-02-10 06:40:00,SystemResetWarning,0825.2,5.00,000.00,018.8,018.2,000.0,027.4,020.5,22.1,0000.0,0002.11,0002.69,0001.93
2024-02-10 06:41:00,SystemResetWarning,0825.2,4.99,000.00,018.8,018.2,000.0,027.4,020.5,22.1,0000.0,0002.12,0002.71,0001.93
2024-02-10 06:42:00,SystemResetWarning,0825.2,4.99,000.00,018.8,018.2,000.0,027.3,020.5,22.1,0000.0,0002.12,0002.71,0001.94
2024-02-10 06:43:00,SystemResetWarning,0825.2,5.01,000.00,018.8,018.2,000.0,027.3,020.5,22.1,0000.0,0002.09,0002.64,0001.95
2024-02-10 06:44:00,SystemResetWarning,0825.2,5.01,000.00,018.8,018.2,000.0,027.3,020.5,22.1,0000.0,0002.09,0002.61,0001.96
2024-02-10 06:45:00,SystemResetWarning,0825.2,4.99,000.00,018.8,018.2,000.0,027.3,020.5,22.1,0000.0,0002.09,0002.57,0001.97
2024-02-10 06:46:00,SystemResetWarning,0825.2,4.98,000.00,018.7,018.2,000.0,027.3,020.4,22.1,0000.0,0002.11,0002.60,0001.99
2024-02-10 06:47:00,SystemResetWarning,0825.2,5.01,000.00,018.7,018.2,000.0,027.3,020.4,22.2,0000.0,0002.13,0002.62,0002.00
2024-02-10 06:48:00,SystemResetWarning,0825.3,5.02,000.00,018.7,018.2,000.0,027.3,020.5,22.2,0000.0,0002.13,0002.59,0002.01
2024-02-10 06:49:00,SystemResetWarning,0825.3,4.99,000.00,018.7,018.2,000.0,027.3,020.4,22.2,0000.0,0002.14,0002.56,0002.01
2024-02-10 06:50:00,SystemResetWarning,0825.3,4.99,000.00,018.7,018.2,000.0,027.3,020.4,22.2,0000.0,0002.15,0002.60,0002.01
2024-02-10 06:51:00,SystemResetWarning,0825.2,5.01,000.00,018.7,018.2,000.0,027.3,020.4,22.2,0000.0,0002.15,0002.61,0002.01
2024-02-10 06:52:00,SystemResetWarning,0825.2,5.01,000.00,018.7,018.2,000.0,027.3,020.4,22.2,0000.0,0002.17,0002.66,0002.02
2024-02-10 06:53:00,SystemResetWarning,0825.2,5.00,000.00,018.7,018.2,000.0,027.2,020.4,22.2,0000.0,0002.17,0002.64,0002.02
2024-02-10 06:54:00,SystemResetWarning,0825.3,5.00,000.00,018.7,018.1,000.0,027.2,020.4,22.2,0000.0,0002.19,0002.68,0002.04
2024-02-10 06:55:00,SystemResetWarning,0825.3,5.00,000.00,018.7,018.1,000.0,027.2,020.4,22.2,0000.0,0002.22,0002.72,0002.06
2024-02-10 06:56:00,SystemResetWarning,0825.3,4.99,000.00,018.7,018.1,000.0,027.2,020.4,22.1,0000.0,0002.24,0002.78,0002.07
2024-02-10 06:57:00,SystemResetWarning,0825.2,5.00,000.00,018.6,018.1,000.0,027.2,020.4,22.1,0000.0,0002.25,0002.80,0002.08
2024-02-10 06:58:00,SystemResetWarning,0825.3,5.00,000.00,018.6,018.1,000.0,027.2,020.4,22.1,0000.0,0002.23,0002.77,0002.07
2024-02-10 06:59:00,SystemResetWarning,0825.3,4.99,000.00,018.6,018.1,000.0,027.2,020.4,22.1,0000.0,0002.22,0002.76,0002.06
